Time,TemperatureF,DewpointF,PressureIn,WindDirection,WindDirectionDegrees,WindSpeedMPH,WindSpeedGustMPH,Humidity,HourlyPrecipIn,Conditions,Clouds,dailyrainin,SoftwareType,DateUTC
2013-03-29 00:04:00,55.0,47.2,30.06,SE,135,0.0,0.0,75,0.00,,,0.00,WUHU216HW,2013-03-29 07:04:00,
2013-03-29 00:09:00,55.0,47.2,30.07,SE,135,0.0,0.0,75,0.00,,,0.00,WUHU216HW,2013-03-29 07:09:00,
2013-03-29 00:14:00,55.0,47.3,30.07,SE,135,0.0,0.0,76,0.00,,,0.00,WUHU216HW,2013-03-29 07:14:00,
2013-03-29 00:19:00,54.6,47.2,30.07,SE,135,0.0,0.0,76,0.00,,,0.00,WUHU216HW,2013-03-29 07:19:00,
2013-03-29 00:24:00,54.5,47.0,30.07,SE,135,0.0,0.0,76,0.00,,,0.00,WUHU216HW,2013-03-29 07:24:00,
2013-03-29 00:29:00,54.3,47.0,30.06,SE,135,0.0,0.0,76,0.00,,,0.00,WUHU216HW,2013-03-29 07:29:00,
2013-03-29 00:34:00,54.3,47.2,30.06,SE,135,0.0,0.0,77,0.00,,,0.00,WUHU216HW,2013-03-29 07:34:00,
2013-03-29 00:39:00,54.3,47.2,30.06,SE,135,0.0,0.0,77,0.00,,,0.00,WUHU216HW,2013-03-29 07:39:00,
2013-03-29 00:44:00,54.3,47.2,30.06,SE,135,0.0,0.0,77,0.00,,,0.00,WUHU216HW,2013-03-29 07:44:00,
2013-03-29 00:49:00,54.3,47.2,30.06,SE,135,0.0,0.0,77,0.00,,,0.00,WUHU216HW,2013-03-29 07:49:00,
2013-03-29 00:54:00,54.1,47.0,30.06,SE,135,0.0,0.0,77,0.00,,,0.00,WUHU216HW,2013-03-29 07:54:00,
2013-03-29 00:59:00,54.1,47.0,30.06,SE,135,0.0,0.0,77,0.00,,,0.00,WUHU216HW,2013-03-29 07:59:00,
2013-03-29 01:04:00,53.9,46.9,30.06,SE,135,0.0,0.0,77,0.00,,,0.00,WUHU216HW,2013-03-29 08:04:00,
2013-03-29 01:09:00,53.9,46.9,30.06,SE,135,0.0,0.0,77,0.00,,,0.00,WUHU216HW,2013-03-29 08:09:00,
2013-03-29 01:15:00,53.9,46.9,30.07,SE,135,0.0,0.0,77,0.00,,,0.00,WUHU216HW,2013-03-29 08:15:00,
2013-03-29 01:20:00,53.9,46.9,30.06,SE,135,0.0,0.0,77,0.00,,,0.00,WUHU216HW,2013-03-29 08:20:00,
2013-03-29 01:25:00,53.7,46.7,30.06,SE,135,0.0,0.0,77,0.00,,,0.00,WUHU216HW,2013-03-29 08:25:00,
2013-03-29 01:30:00,53.7,46.7,30.06,SE,135,0.0,0.0,77,0.00,,,0.00,WUHU216HW,2013-03-29 08:30:00,
2013-03-29 01:35:00,53.7,46.7,30.06,SE,135,0.0,0.0,77,0.00,,,0.00,WUHU216HW,2013-03-29 08:35:00,
2013-03-29 01:40:00,53.7,46.7,30.06,SE,135,0.0,0.0,77,0.00,,,0.00,WUHU216HW,2013-03-29 08:40:00,
2013-03-29 01:45:00,53.7,46.7,30.06,SE,135,0.0,0.0,77,0.00,,,0.00,WUHU216HW,2013-03-29 08:45:00,
2013-03-29 01:50:00,53.6,46.5,30.06,SE,135,0.0,0.0,77,0.00,,,0.00,WUHU216HW,2013-03-29 08:50:00,
2013-03-29 01:55:00,53.4,46.4,30.06,SE,135,0.0,0.0,77,0.00,,,0.00,WUHU216HW,2013-03-29 08:55:00,
2013-03-29 02:00:00,53.4,46.4,30.06,SE,135,0.0,0.0,77,0.00,,,0.00,WUHU216HW,2013-03-29 09:00:00,
2013-03-29 02:05:00,53.4,46.4,30.06,SE,135,0.0,0.0,77,0.00,,,0.00,WUHU216HW,2013-03-29 09:05:00,
2013-03-29 02:10:00,53.4,46.7,30.06,SE,135,0.0,0.0,78,0.00,,,0.00,WUHU216HW,2013-03-29 09:10:00,
2013-03-29 02:15:00,53.2,46.5,30.06,SE,135,0.0,0.0,78,0.00,,,0.00,WUHU216HW,2013-03-29 09:15:00,
2013-03-29 02:20:00,53.2,46.5,30.06,SE,135,0.0,0.0,78,0.00,,,0.00,WUHU216HW,2013-03-29 09:20:00,
2013-03-29 02:25:00,53.2,46.5,30.06,SE,135,0.0,0.0,78,0.00,,,0.00,WUHU216HW,2013-03-29 09:25:00,
2013-03-29 02:30:00,53.2,46.5,30.06,SE,135,0.0,0.0,78,0.00,,,0.00,WUHU216HW,2013-03-29 09:30:00,
2013-03-29 02:35:00,53.2,46.5,30.06,SE,135,0.0,0.0,78,0.00,,,0.00,WUHU216HW,2013-03-29 09:35:00,
2013-03-29 02:40:00,53.2,46.5,30.06,SE,135,0.0,0.0,78,0.00,,,0.00,WUHU216HW,2013-03-29 09:40:00,
2013-03-29 02:45:00,53.2,46.5,30.06,SE,135,0.0,0.0,78,0.00,,,0.00,WUHU216HW,2013-03-29 09:45:00,
2013-03-29 02:50:00,53.0,46.4,30.06,SE,135,0.0,0.0,78,0.00,,,0.00,WUHU216HW,2013-03-29 09:50:00,
2013-03-29 02:55:00,52.8,46.5,30.06,SE,135,0.0,0.0,79,0.00,,,0.00,WUHU216HW,2013-03-29 09:55:00,
2013-03-29 03:00:00,53.0,46.7,30.06,SE,135,0.0,0.0,79,0.00,,,0.00,WUHU216HW,2013-03-29 10:00:00,
2013-03-29 03:06:00,53.2,46.9,30.05,SE,135,0.0,0.0,79,0.00,,,0.00,WUHU216HW,2013-03-29 10:06:00,
2013-03-29 03:11:00,53.2,46.9,30.05,SE,135,0.0,0.0,79,0.00,,,0.00,WUHU216HW,2013-03-29 10:11:00,
2013-03-29 03:16:00,53.2,46.9,30.04,SE,135,0.0,0.0,79,0.00,,,0.00,WUHU216HW,2013-03-29 10:16:00,
2013-03-29 03:21:00,53.2,46.9,30.04,SE,135,0.0,0.0,79,0.00,,,0.00,WUHU216HW,2013-03-29 10:21:00,
2013-03-29 03:26:00,53.2,46.9,30.04,SE,135,0.0,0.0,79,0.00,,,0.00,WUHU216HW,2013-03-29 10:26:00,
2013-03-29 03:31:00,53.0,46.7,30.04,SE,135,0.0,0.0,79,0.00,,,0.00,WUHU216HW,2013-03-29 10:31:00,
2013-03-29 03:36:00,52.8,46.9,30.04,SE,135,0.0,0.0,80,0.00,,,0.00,WUHU216HW,2013-03-29 10:36:00,
2013-03-29 03:42:00,52.7,46.7,30.04,SE,135,0.0,0.0,80,0.00,,,0.00,WUHU216HW,2013-03-29 10:42:00,
2013-03-29 03:47:00,52.7,46.7,30.04,SE,135,0.0,0.0,80,0.00,,,0.00,WUHU216HW,2013-03-29 10:47:00,
2013-03-29 03:52:00,52.5,46.5,30.04,SE,135,0.0,0.0,80,0.00,,,0.00,WUHU216HW,2013-03-29 10:52:00,
2013-03-29 03:57:00,52.3,46.4,30.04,SE,135,0.0,0.0,80,0.00,,,0.00,WUHU216HW,2013-03-29 10:57:00,
2013-03-29 04:02:00,52.3,46.4,30.04,SE,135,0.0,0.0,80,0.00,,,0.00,WUHU216HW,2013-03-29 11:02:00,
2013-03-29 04:07:00,52.3,46.4,30.04,SE,135,0.0,0.0,80,0.00,,,0.00,WUHU216HW,2013-03-29 11:07:00,
2013-03-29 04:12:00,52.1,46.2,30.05,SE,135,0.0,0.0,80,0.00,,,0.00,WUHU216HW,2013-03-29 11:12:00,
2013-03-29 04:17:00,52.1,46.2,30.05,SE,135,0.0,0.0,80,0.00,,,0.00,WUHU216HW,2013-03-29 11:17:00,
2013-03-29 04:22:00,51.9,46.0,30.05,SE,135,0.0,0.0,80,0.00,,,0.00,WUHU216HW,2013-03-29 11:22:00,
2013-03-29 04:27:00,51.8,45.8,30.04,SE,135,0.0,0.0,80,0.00,,,0.00,WUHU216HW,2013-03-29 11:27:00,
2013-03-29 04:33:00,51.6,45.6,30.05,SE,135,0.0,0.0,80,0.00,,,0.00,WUHU216HW,2013-03-29 11:33:00,
2013-03-29 04:38:00,51.6,45.6,30.04,SE,135,0.0,0.0,80,0.00,,,0.00,WUHU216HW,2013-03-29 11:38:00,
2013-03-29 04:43:00,51.6,45.6,30.04,SE,135,0.0,0.0,80,0.00,,,0.00,WUHU216HW,2013-03-29 11:43:00,
2013-03-29 04:48:00,51.6,45.6,30.04,SE,135,0.0,0.0,80,0.00,,,0.00,WUHU216HW,2013-03-29 11:48:00,
2013-03-29 04:53:00,51.4,45.5,30.04,SE,135,0.0,0.0,80,0.00,,,0.00,WUHU216HW,2013-03-29 11:53:00,
2013-03-29 04:58:00,51.4,45.5,30.04,SE,135,0.0,0.0,80,0.00,,,0.00,WUHU216HW,2013-03-29 11:58:00,
2013-03-29 05:03:00,51.4,45.5,30.04,SE,135,0.0,0.0,80,0.00,,,0.00,WUHU216HW,2013-03-29 12:03:00,
2013-03-29 05:08:00,51.2,45.3,30.04,SE,135,0.0,0.0,80,0.00,,,0.00,WUHU216HW,2013-03-29 12:08:00,
2013-03-29 05:13:00,51.0,45.1,30.04,SE,135,0.0,0.0,80,0.00,,,0.00,WUHU216HW,2013-03-29 12:13:00,
2013-03-29 05:18:00,51.0,45.1,30.04,SE,135,0.0,0.0,80,0.00,,,0.00,WUHU216HW,2013-03-29 12:18:00,
2013-03-29 05:23:00,51.0,45.1,30.04,SE,135,0.0,0.0,80,0.00,,,0.00,WUHU216HW,2013-03-29 12:23:00,
2013-03-29 05:29:00,50.9,44.9,30.04,SE,135,0.0,0.0,80,0.00,,,0.00,WUHU216HW,2013-03-29 12:29:00,
2013-03-29 05:34:00,50.9,45.2,30.04,SE,135,0.0,0.0,81,0.00,,,0.00,WUHU216HW,2013-03-29 12:34:00,
2013-03-29 05:39:00,50.7,44.7,30.04,SE,135,0.0,0.0,80,0.00,,,0.00,WUHU216HW,2013-03-29 12:39:00,
2013-03-29 05:44:00,50.7,45.0,30.04,SE,135,0.0,0.0,81,0.00,,,0.00,WUHU216HW,2013-03-29 12:44:00,
2013-03-29 05:49:00,50.7,45.0,30.04,SE,135,0.0,0.0,81,0.00,,,0.00,WUHU216HW,2013-03-29 12:49:00,
2013-03-29 05:54:00,50.7,45.0,30.04,SE,135,0.0,0.0,81,0.00,,,0.00,WUHU216HW,2013-03-29 12:54:00,
2013-03-29 05:59:00,50.5,44.9,30.04,SE,135,0.0,0.0,81,0.00,,,0.00,WUHU216HW,2013-03-29 12:59:00,
2013-03-29 06:04:00,50.3,45.0,30.04,SE,135,0.0,0.0,82,0.00,,,0.00,WUHU216HW,2013-03-29 13:04:00,
2013-03-29 06:09:00,50.3,45.0,30.04,SE,135,0.0,0.0,82,0.00,,,0.00,WUHU216HW,2013-03-29 13:09:00,
2013-03-29 06:14:00,50.3,45.0,30.04,SE,135,0.0,0.0,82,0.00,,,0.00,WUHU216HW,2013-03-29 13:14:00,
2013-03-29 06:19:00,50.1,44.8,30.04,SE,135,0.0,0.0,82,0.00,,,0.00,WUHU216HW,2013-03-29 13:19:00,
2013-03-29 06:24:00,50.1,44.8,30.04,SE,135,0.0,0.0,82,0.00,,,0.00,WUHU216HW,2013-03-29 13:24:00,
2013-03-29 06:29:00,49.8,44.4,30.05,SE,135,0.0,0.0,82,0.00,,,0.00,WUHU216HW,2013-03-29 13:29:00,
2013-03-29 06:34:00,49.8,44.4,30.05,SE,135,0.0,0.0,82,0.00,,,0.00,WUHU216HW,2013-03-29 13:34:00,
2013-03-29 06:39:00,49.8,44.4,30.05,SE,135,0.0,0.0,82,0.00,,,0.00,WUHU216HW,2013-03-29 13:39:00,
2013-03-29 06:44:00,49.8,44.4,30.05,SSE,158,0.0,0.0,82,0.00,,,0.00,WUHU216HW,2013-03-29 13:44:00,
2013-03-29 06:49:00,49.8,44.4,30.05,SSE,158,0.0,0.0,82,0.00,,,0.00,WUHU216HW,2013-03-29 13:49:00,
2013-03-29 06:54:00,49.8,44.4,30.05,SSE,158,0.0,0.0,82,0.00,,,0.00,WUHU216HW,2013-03-29 13:54:00,
2013-03-29 06:59:00,49.8,44.4,30.05,South,180,0.6,0.6,82,0.00,,,0.00,WUHU216HW,2013-03-29 13:59:00,
2013-03-29 07:04:00,49.6,44.3,30.06,SSE,158,0.0,0.6,82,0.00,,,0.00,WUHU216HW,2013-03-29 14:04:00,
2013-03-29 07:10:00,49.6,44.6,30.06,SSE,158,0.0,0.6,83,0.00,,,0.00,WUHU216HW,2013-03-29 14:10:00,
2013-03-29 07:15:00,49.6,44.6,30.06,SSE,158,0.0,0.0,83,0.00,,,0.00,WUHU216HW,2013-03-29 14:15:00,
2013-03-29 07:20:00,49.6,44.6,30.06,SSE,158,0.0,0.0,83,0.00,,,0.00,WUHU216HW,2013-03-29 14:20:00,
2013-03-29 07:25:00,49.6,44.6,30.06,SSE,158,0.0,0.0,83,0.00,,,0.00,WUHU216HW,2013-03-29 14:25:00,
2013-03-29 07:30:00,49.6,44.6,30.05,SSE,158,0.0,0.0,83,0.00,,,0.00,WUHU216HW,2013-03-29 14:30:00,
2013-03-29 07:35:00,49.6,44.6,30.06,SSE,158,0.0,0.0,83,0.00,,,0.00,WUHU216HW,2013-03-29 14:35:00,
2013-03-29 07:40:00,49.6,44.6,30.06,SE,135,0.0,0.0,83,0.00,,,0.00,WUHU216HW,2013-03-29 14:40:00,
2013-03-29 07:45:00,49.6,44.6,30.06,SE,135,0.0,0.0,83,0.00,,,0.00,WUHU216HW,2013-03-29 14:45:00,
2013-03-29 07:50:00,49.6,44.6,30.06,ESE,113,0.0,0.0,83,0.00,,,0.00,WUHU216HW,2013-03-29 14:50:00,
2013-03-29 07:55:00,49.6,44.6,30.06,ESE,113,0.0,0.0,83,0.00,,,0.00,WUHU216HW,2013-03-29 14:55:00,
2013-03-29 08:00:00,49.6,44.9,30.06,SW,225,1.1,1.1,84,0.00,,,0.00,WUHU216HW,2013-03-29 15:00:00,
2013-03-29 08:05:00,49.8,45.1,30.06,SSW,203,0.0,1.1,84,0.00,,,0.00,WUHU216HW,2013-03-29 15:05:00,
2013-03-29 08:11:00,49.8,45.1,30.05,SSW,203,0.0,0.0,84,0.00,,,0.00,WUHU216HW,2013-03-29 15:11:00,
2013-03-29 08:16:00,50.1,45.4,30.05,SSE,158,0.0,0.0,84,0.00,,,0.00,WUHU216HW,2013-03-29 15:16:00,
2013-03-29 08:21:00,50.5,45.8,30.06,South,180,0.0,0.0,84,0.00,,,0.00,WUHU216HW,2013-03-29 15:21:00,
2013-03-29 08:26:00,50.7,46.0,30.06,SSE,158,0.6,0.6,84,0.00,,,0.00,WUHU216HW,2013-03-29 15:26:00,
2013-03-29 08:31:00,50.9,46.4,30.06,SE,135,0.6,0.6,85,0.00,,,0.00,WUHU216HW,2013-03-29 15:31:00,
2013-03-29 08:36:00,51.0,46.6,30.06,SE,135,0.0,0.6,85,0.00,,,0.00,WUHU216HW,2013-03-29 15:36:00,
2013-03-29 08:41:00,51.4,47.0,30.06,ESE,113,0.0,0.0,85,0.00,,,0.00,WUHU216HW,2013-03-29 15:41:00,
2013-03-29 08:46:00,51.6,47.2,30.06,SE,135,0.0,0.0,85,0.00,,,0.00,WUHU216HW,2013-03-29 15:46:00,
2013-03-29 08:52:00,51.9,47.5,30.06,SE,135,0.0,0.0,85,0.00,,,0.00,WUHU216HW,2013-03-29 15:52:00,
2013-03-29 08:57:00,52.3,47.9,30.06,South,180,0.0,0.0,85,0.00,,,0.00,WUHU216HW,2013-03-29 15:57:00,
2013-03-29 09:02:00,52.7,48.2,30.06,SE,135,0.0,0.0,85,0.00,,,0.00,WUHU216HW,2013-03-29 16:02:00,
2013-03-29 09:07:00,52.8,48.4,30.06,SE,135,0.0,0.0,85,0.00,,,0.00,WUHU216HW,2013-03-29 16:07:00,
2013-03-29 09:12:00,53.2,48.8,30.06,SE,135,0.0,0.0,85,0.00,,,0.00,WUHU216HW,2013-03-29 16:12:00,
2013-03-29 09:17:00,53.4,49.0,30.06,SE,135,0.0,0.0,85,0.00,,,0.00,WUHU216HW,2013-03-29 16:17:00,
2013-03-29 09:22:00,53.7,49.3,30.06,SE,135,0.0,0.0,85,0.00,,,0.00,WUHU216HW,2013-03-29 16:22:00,
2013-03-29 09:27:00,54.1,49.6,30.06,SSE,158,0.0,0.8,85,0.00,,,0.00,WUHU216HW,2013-03-29 16:27:00,
2013-03-29 09:32:00,54.5,49.7,30.06,SSW,203,1.1,1.1,84,0.00,,,0.00,WUHU216HW,2013-03-29 16:32:00,
2013-03-29 09:37:00,54.6,49.8,30.06,SSW,203,0.0,1.1,84,0.00,,,0.00,WUHU216HW,2013-03-29 16:37:00,
2013-03-29 09:42:00,55.2,50.3,30.06,SSW,203,2.6,2.6,84,0.00,,,0.00,WUHU216HW,2013-03-29 16:42:00,
2013-03-29 09:47:00,55.5,50.7,30.06,SW,225,0.0,2.6,84,0.00,,,0.00,WUHU216HW,2013-03-29 16:47:00,
2013-03-29 09:52:00,55.9,50.7,30.06,SSW,203,2.2,3.1,83,0.00,,,0.00,WUHU216HW,2013-03-29 16:52:00,
2013-03-29 09:57:00,56.8,51.6,30.06,NW,315,0.0,3.1,83,0.00,,,0.00,WUHU216HW,2013-03-29 16:57:00,
2013-03-29 10:02:00,57.0,51.5,30.06,South,180,4.2,4.2,82,0.00,,,0.00,WUHU216HW,2013-03-29 17:02:00,
2013-03-29 10:07:00,57.5,51.7,30.06,SW,225,0.0,4.2,81,0.00,,,0.00,WUHU216HW,2013-03-29 17:07:00,
2013-03-29 10:12:00,58.4,52.3,30.06,SW,225,0.0,2.2,80,0.00,,,0.00,WUHU216HW,2013-03-29 17:12:00,
2013-03-29 10:17:00,58.8,52.3,30.06,ENE,68,0.0,0.0,79,0.00,,,0.00,WUHU216HW,2013-03-29 17:17:00,
2013-03-29 10:22:00,58.8,52.3,30.06,ESE,113,0.0,0.0,79,0.00,,,0.00,WUHU216HW,2013-03-29 17:22:00,
2013-03-29 10:27:00,60.0,52.5,30.06,ENE,68,0.0,4.4,76,0.00,,,0.00,WUHU216HW,2013-03-29 17:27:00,
2013-03-29 10:32:00,60.9,52.6,30.06,East,90,0.0,5.5,74,0.00,,,0.00,WUHU216HW,2013-03-29 17:32:00,
2013-03-29 10:37:00,61.7,52.6,30.06,SE,135,2.9,5.5,72,0.00,,,0.00,WUHU216HW,2013-03-29 17:37:00,
2013-03-29 10:43:00,62.7,53.2,30.06,ESE,113,0.4,3.3,71,0.00,,,0.00,WUHU216HW,2013-03-29 17:43:00,
2013-03-29 10:48:00,63.1,52.8,30.05,East,90,0.0,2.0,69,0.00,,,0.00,WUHU216HW,2013-03-29 17:48:00,
2013-03-29 10:53:00,64.0,52.8,30.05,ESE,113,0.0,5.5,67,0.00,,,0.00,WUHU216HW,2013-03-29 17:53:00,
2013-03-29 10:58:00,64.4,52.7,30.06,SE,135,7.8,7.8,66,0.00,,,0.00,WUHU216HW,2013-03-29 17:58:00,
2013-03-29 11:03:00,64.9,53.2,30.05,ENE,68,1.7,7.8,66,0.00,,,0.00,WUHU216HW,2013-03-29 18:03:00,
2013-03-29 11:08:00,65.3,53.1,30.05,East,90,0.0,2.4,65,0.00,,,0.00,WUHU216HW,2013-03-29 18:08:00,
2013-03-29 11:13:00,65.4,52.9,30.05,ESE,113,2.0,2.0,64,0.00,,,0.00,WUHU216HW,2013-03-29 18:13:00,
2013-03-29 11:18:00,65.8,52.8,30.05,SE,135,5.5,5.5,63,0.00,,,0.00,WUHU216HW,2013-03-29 18:18:00,
2013-03-29 11:23:00,66.0,53.0,30.05,East,90,3.5,5.5,63,0.00,,,0.00,WUHU216HW,2013-03-29 18:23:00,
2013-03-29 11:28:00,66.3,52.9,30.05,NE,45,0.0,8.7,62,0.00,,,0.00,WUHU216HW,2013-03-29 18:28:00,
2013-03-29 11:33:00,66.7,53.2,30.06,NE,45,5.1,8.7,62,0.00,,,0.00,WUHU216HW,2013-03-29 18:33:00,
2013-03-29 11:38:00,67.1,53.2,30.06,ESE,113,8.5,8.5,61,0.00,,,0.00,WUHU216HW,2013-03-29 18:38:00,
2013-03-29 11:43:00,67.2,53.3,30.05,East,90,2.9,8.5,61,0.00,,,0.00,WUHU216HW,2013-03-29 18:43:00,
2013-03-29 11:48:00,67.6,53.6,30.05,ESE,113,3.3,8.5,61,0.00,,,0.00,WUHU216HW,2013-03-29 18:48:00,
2013-03-29 11:53:00,68.1,53.7,30.06,ESE,113,4.0,5.1,60,0.00,,,0.00,WUHU216HW,2013-03-29 18:53:00,
2013-03-29 11:58:00,68.5,54.1,30.06,ESE,113,1.3,4.0,60,0.00,,,0.00,WUHU216HW,2013-03-29 18:58:00,
2013-03-29 12:03:00,69.0,53.6,30.05,East,90,6.0,7.6,58,0.00,,,0.00,WUHU216HW,2013-03-29 19:03:00,
2013-03-29 12:08:00,69.4,54.0,30.06,ENE,68,8.0,8.0,58,0.00,,,0.00,WUHU216HW,2013-03-29 19:08:00,
2013-03-29 12:14:00,69.6,53.7,30.06,ESE,113,4.4,8.0,57,0.00,,,0.00,WUHU216HW,2013-03-29 19:14:00,
2013-03-29 12:19:00,69.8,53.8,30.06,ESE,113,0.0,8.0,57,0.00,,,0.00,WUHU216HW,2013-03-29 19:19:00,
2013-03-29 12:24:00,70.1,54.2,30.05,NE,45,0.0,4.4,57,0.00,,,0.00,WUHU216HW,2013-03-29 19:24:00,
2013-03-29 12:29:00,70.3,54.3,30.05,East,90,0.0,6.0,57,0.00,,,0.00,WUHU216HW,2013-03-29 19:29:00,
2013-03-29 12:34:00,70.8,54.3,30.05,NNE,23,2.4,6.0,56,0.00,,,0.00,WUHU216HW,2013-03-29 19:34:00,
2013-03-29 12:39:00,71.2,54.1,30.05,East,90,2.0,6.4,55,0.00,,,0.00,WUHU216HW,2013-03-29 19:39:00,
2013-03-29 12:44:00,71.4,54.3,30.05,SE,135,4.4,6.4,55,0.00,,,0.00,WUHU216HW,2013-03-29 19:44:00,
2013-03-29 12:49:00,71.7,54.6,30.05,ESE,113,2.0,4.4,55,0.00,,,0.00,WUHU216HW,2013-03-29 19:49:00,
2013-03-29 12:54:00,71.9,54.3,30.05,SSE,158,4.4,4.4,54,0.00,,,0.00,WUHU216HW,2013-03-29 19:54:00,
2013-03-29 12:59:00,72.3,54.6,30.05,East,90,3.3,4.4,54,0.00,,,0.00,WUHU216HW,2013-03-29 19:59:00,
2013-03-29 13:04:00,72.5,54.8,30.05,East,90,4.9,4.9,54,0.00,,,0.00,WUHU216HW,2013-03-29 20:04:00,
2013-03-29 13:09:00,73.0,54.7,30.05,ESE,113,0.6,4.9,53,0.00,,,0.00,WUHU216HW,2013-03-29 20:09:00,
2013-03-29 13:14:00,73.0,54.7,30.04,ESE,113,0.0,4.9,53,0.00,,,0.00,WUHU216HW,2013-03-29 20:14:00,
2013-03-29 13:19:00,73.4,55.1,30.04,SE,135,3.3,3.3,53,0.00,,,0.00,WUHU216HW,2013-03-29 20:19:00,
2013-03-29 13:24:00,73.5,54.7,30.04,ENE,68,1.5,5.1,52,0.00,,,0.00,WUHU216HW,2013-03-29 20:24:00,
2013-03-29 13:29:00,74.1,55.3,30.03,SE,135,2.6,5.1,52,0.00,,,0.00,WUHU216HW,2013-03-29 20:29:00,
2013-03-29 13:34:00,74.3,55.5,30.04,SSE,158,0.6,4.9,52,0.00,,,0.00,WUHU216HW,2013-03-29 20:34:00,
2013-03-29 13:39:00,74.4,55.1,30.04,SSE,158,0.0,2.6,51,0.00,,,0.00,WUHU216HW,2013-03-29 20:39:00,
2013-03-29 13:44:00,74.8,55.0,30.05,ESE,113,6.0,6.0,50,0.00,,,0.00,WUHU216HW,2013-03-29 20:44:00,
2013-03-29 13:49:00,74.8,55.5,30.04,South,180,1.7,6.0,51,0.00,,,0.00,WUHU216HW,2013-03-29 20:49:00,
2013-03-29 13:55:00,74.8,55.5,30.04,ESE,113,1.7,6.0,51,0.00,,,0.00,WUHU216HW,2013-03-29 20:55:00,
2013-03-29 13:59:00,74.8,55.5,30.04,SE,135,0.0,3.3,51,0.00,,,0.00,WUHU216HW,2013-03-29 20:59:00,
2013-03-29 14:05:00,75.2,55.9,30.04,SSE,158,1.7,3.3,51,0.00,,,0.00,WUHU216HW,2013-03-29 21:05:00,
2013-03-29 14:10:00,75.5,55.7,30.04,ESE,113,0.0,1.7,50,0.00,,,0.00,WUHU216HW,2013-03-29 21:10:00,
2013-03-29 14:15:00,75.9,55.4,30.04,South,180,4.9,6.4,49,0.00,,,0.00,WUHU216HW,2013-03-29 21:15:00,
2013-03-29 14:20:00,75.9,55.4,30.03,SE,135,3.8,6.4,49,0.00,,,0.00,WUHU216HW,2013-03-29 21:20:00,
2013-03-29 14:25:00,76.1,55.5,30.03,South,180,0.0,4.2,49,0.00,,,0.00,WUHU216HW,2013-03-29 21:25:00,
2013-03-29 14:30:00,76.1,55.5,30.03,SSE,158,0.0,3.8,49,0.00,,,0.00,WUHU216HW,2013-03-29 21:30:00,
2013-03-29 14:35:00,76.2,55.7,30.03,SW,225,1.5,1.5,49,0.00,,,0.00,WUHU216HW,2013-03-29 21:35:00,
2013-03-29 14:40:00,76.1,54.9,30.03,SE,135,0.0,1.5,48,0.00,,,0.00,WUHU216HW,2013-03-29 21:40:00,
2013-03-29 14:45:00,76.1,55.5,30.03,South,180,0.0,2.4,49,0.00,,,0.00,WUHU216HW,2013-03-29 21:45:00,
2013-03-29 14:50:00,76.1,55.5,30.03,WSW,248,2.9,2.9,49,0.00,,,0.00,WUHU216HW,2013-03-29 21:50:00,
2013-03-29 14:55:00,76.1,54.9,30.03,SE,135,2.0,2.9,48,0.00,,,0.00,WUHU216HW,2013-03-29 21:55:00,
2013-03-29 15:00:00,76.1,56.2,30.03,SW,225,3.3,3.3,50,0.00,,,0.00,WUHU216HW,2013-03-29 22:00:00,
2013-03-29 15:05:00,75.9,56.0,30.03,SE,135,6.7,8.0,50,0.00,,,0.00,WUHU216HW,2013-03-29 22:05:00,
2013-03-29 15:10:00,75.2,55.4,30.03,SSE,158,5.5,8.0,50,0.00,,,0.00,WUHU216HW,2013-03-29 22:10:00,
2013-03-29 15:15:00,74.4,54.6,30.03,West,270,7.1,7.1,50,0.00,,,0.00,WUHU216HW,2013-03-29 22:15:00,
2013-03-29 15:20:00,73.0,53.7,30.03,ESE,113,4.2,7.1,51,0.00,,,0.00,WUHU216HW,2013-03-29 22:20:00,
2013-03-29 15:25:00,71.9,53.3,30.04,SW,225,2.9,5.8,52,0.00,,,0.00,WUHU216HW,2013-03-29 22:25:00,
2013-03-29 15:31:00,71.2,53.1,30.04,SE,135,6.9,6.9,53,0.00,,,0.00,WUHU216HW,2013-03-29 22:31:00,
2013-03-29 15:36:00,70.1,52.7,30.04,SSE,158,1.5,6.9,54,0.00,,,0.00,WUHU216HW,2013-03-29 22:36:00,
2013-03-29 15:41:00,69.6,52.1,30.04,SE,135,7.6,7.6,54,0.00,,,0.00,WUHU216HW,2013-03-29 22:41:00,
2013-03-29 15:46:00,68.7,51.8,30.04,SE,135,6.7,7.6,55,0.00,,,0.00,WUHU216HW,2013-03-29 22:46:00,
2013-03-29 15:51:00,68.1,51.8,30.04,NE,45,6.7,6.9,56,0.00,,,0.00,WUHU216HW,2013-03-29 22:51:00,
2013-03-29 15:56:00,67.6,51.8,30.05,SE,135,5.1,6.9,57,0.00,,,0.00,WUHU216HW,2013-03-29 22:56:00,
2013-03-29 16:01:00,66.9,51.6,30.04,SE,135,6.4,7.8,58,0.00,,,0.00,WUHU216HW,2013-03-29 23:01:00,
2013-03-29 16:06:00,66.5,51.3,30.04,SSE,158,3.8,10.0,58,0.00,,,0.00,WUHU216HW,2013-03-29 23:06:00,
2013-03-29 16:11:00,66.3,51.6,30.04,West,270,1.3,10.0,59,0.00,,,0.00,WUHU216HW,2013-03-29 23:11:00,
2013-03-29 16:16:00,65.4,50.7,30.05,SSE,158,3.8,9.6,59,0.00,,,0.00,WUHU216HW,2013-03-29 23:16:00,
2013-03-29 16:22:00,64.9,50.7,30.05,SSE,158,6.2,9.6,60,0.00,,,0.00,WUHU216HW,2013-03-29 23:22:00,
2013-03-29 16:27:00,64.2,50.4,30.05,ESE,113,5.5,8.0,61,0.00,,,0.00,WUHU216HW,2013-03-29 23:27:00,
2013-03-29 16:32:00,63.6,50.3,30.04,SE,135,6.0,6.0,62,0.00,,,0.00,WUHU216HW,2013-03-29 23:32:00,
2013-03-29 16:37:00,63.3,50.0,30.04,SSW,203,2.2,6.0,62,0.00,,,0.00,WUHU216HW,2013-03-29 23:37:00,
2013-03-29 16:42:00,63.5,50.6,30.04,ESE,113,4.6,5.5,63,0.00,,,0.00,WUHU216HW,2013-03-29 23:42:00,
2013-03-29 16:47:00,63.5,50.6,30.03,South,180,0.0,6.4,63,0.00,,,0.00,WUHU216HW,2013-03-29 23:47:00,
2013-03-29 16:52:00,63.8,50.9,30.03,SE,135,6.9,6.9,63,0.00,,,0.00,WUHU216HW,2013-03-29 23:52:00,
2013-03-29 16:57:00,63.6,50.7,30.03,SSE,158,2.9,6.9,63,0.00,,,0.00,WUHU216HW,2013-03-29 23:57:00,
2013-03-29 17:02:00,63.8,50.9,30.03,SSE,158,2.4,4.4,63,0.00,,,0.00,WUHU216HW,2013-03-30 00:02:00,
2013-03-29 17:07:00,64.0,51.1,30.03,SSW,203,4.2,4.4,63,0.00,,,0.00,WUHU216HW,2013-03-30 00:07:00,
2013-03-29 17:12:00,63.6,50.3,30.03,South,180,3.3,5.3,62,0.00,,,0.00,WUHU216HW,2013-03-30 00:12:00,
2013-03-29 17:17:00,63.5,50.6,30.03,SSE,158,8.2,8.2,63,0.00,,,0.00,WUHU216HW,2013-03-30 00:17:00,
2013-03-29 17:22:00,62.9,50.2,30.03,SSE,158,4.0,8.2,63,0.00,,,0.00,WUHU216HW,2013-03-30 00:22:00,
2013-03-29 17:27:00,62.7,50.3,30.03,SSW,203,4.2,6.0,64,0.00,,,0.00,WUHU216HW,2013-03-30 00:27:00,
2013-03-29 17:32:00,62.6,50.2,30.03,SSE,158,6.4,6.4,64,0.00,,,0.00,WUHU216HW,2013-03-30 00:32:00,
2013-03-29 17:38:00,62.4,50.0,30.03,SE,135,6.9,6.9,64,0.00,,,0.00,WUHU216HW,2013-03-30 00:38:00,
2013-03-29 17:43:00,62.2,50.3,30.03,SSE,158,4.9,6.9,65,0.00,,,0.00,WUHU216HW,2013-03-30 00:43:00,
2013-03-29 17:48:00,61.8,49.9,30.03,South,180,5.1,6.9,65,0.00,,,0.00,WUHU216HW,2013-03-30 00:48:00,
2013-03-29 17:53:00,61.5,49.9,30.03,SW,225,4.0,5.1,66,0.00,,,0.00,WUHU216HW,2013-03-30 00:53:00,
2013-03-29 17:58:00,61.1,49.7,30.03,SE,135,7.3,7.3,66,0.00,,,0.00,WUHU216HW,2013-03-30 00:58:00,
2013-03-29 18:03:00,60.6,49.2,30.03,SE,135,0.0,7.3,66,0.00,,,0.00,WUHU216HW,2013-03-30 01:03:00,
2013-03-29 18:08:00,60.6,49.6,30.03,South,180,5.3,6.0,67,0.00,,,0.00,WUHU216HW,2013-03-30 01:08:00,
2013-03-29 18:13:00,60.4,49.4,30.03,SSE,158,0.0,6.0,67,0.00,,,0.00,WUHU216HW,2013-03-30 01:13:00,
2013-03-29 18:18:00,60.2,49.7,30.03,SSE,158,5.1,5.3,68,0.00,,,0.00,WUHU216HW,2013-03-30 01:18:00,
2013-03-29 18:23:00,59.9,49.3,30.03,South,180,5.1,5.1,68,0.00,,,0.00,WUHU216HW,2013-03-30 01:23:00,
2013-03-29 18:28:00,59.7,49.1,30.03,SSE,158,1.5,5.1,68,0.00,,,0.00,WUHU216HW,2013-03-30 01:28:00,
2013-03-29 18:33:00,59.5,49.4,30.03,SSW,203,0.0,3.8,69,0.00,,,0.00,WUHU216HW,2013-03-30 01:33:00,
2013-03-29 18:38:00,59.5,49.4,30.03,SSE,158,3.8,3.8,69,0.00,,,0.00,WUHU216HW,2013-03-30 01:38:00,
2013-03-29 18:43:00,59.3,49.2,30.03,SSE,158,2.6,3.8,69,0.00,,,0.00,WUHU216HW,2013-03-30 01:43:00,
2013-03-29 18:48:00,59.1,49.0,30.02,SSE,158,3.5,3.5,69,0.00,,,0.00,WUHU216HW,2013-03-30 01:48:00,
2013-03-29 18:53:00,59.1,49.0,30.02,South,180,0.0,3.5,69,0.00,,,0.00,WUHU216HW,2013-03-30 01:53:00,
2013-03-29 18:58:00,59.3,49.2,30.02,WSW,248,2.2,3.5,69,0.00,,,0.00,WUHU216HW,2013-03-30 01:58:00,
2013-03-29 19:03:00,59.1,49.0,30.02,SSE,158,2.0,3.1,69,0.00,,,0.00,WUHU216HW,2013-03-30 02:03:00,
2013-03-29 19:08:00,59.0,48.8,30.02,South,180,5.5,5.5,69,0.00,,,0.00,WUHU216HW,2013-03-30 02:08:00,
2013-03-29 19:13:00,58.8,49.1,30.02,SE,135,2.2,5.5,70,0.00,,,0.00,WUHU216HW,2013-03-30 02:13:00,
2013-03-29 19:18:00,58.8,49.1,30.02,SE,135,2.2,4.6,70,0.00,,,0.00,WUHU216HW,2013-03-30 02:18:00,
2013-03-29 19:24:00,58.8,49.1,30.01,South,180,0.0,4.6,70,0.00,,,0.00,WUHU216HW,2013-03-30 02:24:00,
2013-03-29 19:29:00,58.6,49.2,30.01,South,180,1.1,1.5,71,0.00,,,0.00,WUHU216HW,2013-03-30 02:29:00,
2013-03-29 19:34:00,58.6,49.2,30.01,SSE,158,0.0,1.1,71,0.00,,,0.00,WUHU216HW,2013-03-30 02:34:00,
2013-03-29 19:39:00,58.6,49.2,30.01,SSW,203,0.0,3.8,71,0.00,,,0.00,WUHU216HW,2013-03-30 02:39:00,
2013-03-29 19:44:00,58.6,49.2,30.02,SSE,158,4.0,4.0,71,0.00,,,0.00,WUHU216HW,2013-03-30 02:44:00,
2013-03-29 19:49:00,58.2,48.9,30.02,South,180,0.0,4.0,71,0.00,,,0.00,WUHU216HW,2013-03-30 02:49:00,
2013-03-29 19:54:00,57.7,48.3,30.03,WSW,248,3.5,7.3,71,0.00,,,0.00,WUHU216HW,2013-03-30 02:54:00,
2013-03-29 19:59:00,57.2,48.2,30.03,WSW,248,0.0,7.3,72,0.00,,,0.00,WUHU216HW,2013-03-30 02:59:00,
2013-03-29 20:04:00,56.8,48.2,30.03,SE,135,5.1,5.1,73,0.00,,,0.00,WUHU216HW,2013-03-30 03:04:00,
2013-03-29 20:09:00,56.3,47.7,30.04,SE,135,2.6,5.5,74,0.00,,,0.00,WUHU216HW,2013-03-30 03:09:00,
2013-03-29 20:14:00,55.4,47.5,30.03,SE,135,4.6,5.5,75,0.00,,,0.00,WUHU216HW,2013-03-30 03:14:00,
2013-03-29 20:20:00,55.0,47.5,30.03,SE,135,2.2,4.6,76,0.00,,,0.00,WUHU216HW,2013-03-30 03:20:00,
2013-03-29 20:25:00,54.5,47.4,30.03,South,180,2.9,6.7,77,0.00,,,0.00,WUHU216HW,2013-03-30 03:25:00,
2013-03-29 20:30:00,54.3,47.2,30.03,SSE,158,2.6,6.7,77,0.00,,,0.00,WUHU216HW,2013-03-30 03:30:00,
2013-03-29 20:35:00,54.3,47.2,30.04,SSE,158,4.2,5.5,77,0.00,,,0.00,WUHU216HW,2013-03-30 03:35:00,
2013-03-29 20:40:00,54.3,47.2,30.04,East,90,3.8,5.5,77,0.00,,,0.00,WUHU216HW,2013-03-30 03:40:00,
2013-03-29 20:45:00,54.1,47.4,30.04,SE,135,2.9,4.9,78,0.00,,,0.00,WUHU216HW,2013-03-30 03:45:00,
2013-03-29 20:50:00,54.1,47.4,30.03,South,180,4.4,4.4,78,0.00,,,0.00,WUHU216HW,2013-03-30 03:50:00,
2013-03-29 20:55:00,54.1,47.4,30.03,SSE,158,2.4,4.4,78,0.00,,,0.00,WUHU216HW,2013-03-30 03:55:00,
2013-03-29 21:00:00,54.3,47.5,30.03,SSE,158,0.0,4.4,78,0.00,,,0.00,WUHU216HW,2013-03-30 04:00:00,
2013-03-29 21:05:00,54.5,47.4,30.03,ESE,113,0.4,2.4,77,0.00,,,0.00,WUHU216HW,2013-03-30 04:05:00,
2013-03-29 21:10:00,54.6,47.5,30.03,SE,135,0.0,1.1,77,0.00,,,0.00,WUHU216HW,2013-03-30 04:10:00,
2013-03-29 21:15:00,55.0,47.9,30.03,SE,135,0.0,0.4,77,0.00,,,0.00,WUHU216HW,2013-03-30 04:15:00,
2013-03-29 21:21:00,55.2,48.0,30.03,SE,135,0.0,0.0,77,0.00,,,0.00,WUHU216HW,2013-03-30 04:21:00,
2013-03-29 21:26:00,55.5,48.4,30.03,SSW,203,1.5,1.5,77,0.00,,,0.00,WUHU216HW,2013-03-30 04:26:00,
2013-03-29 21:31:00,55.7,48.5,30.03,SSW,203,0.0,1.5,77,0.00,,,0.00,WUHU216HW,2013-03-30 04:31:00,
2013-03-29 21:36:00,55.9,48.4,30.03,SSW,203,0.0,0.0,76,0.00,,,0.00,WUHU216HW,2013-03-30 04:36:00,
2013-03-29 21:41:00,56.1,48.5,30.04,ESE,113,0.0,5.3,76,0.00,,,0.00,WUHU216HW,2013-03-30 04:41:00,
2013-03-29 21:46:00,55.9,48.4,30.04,SSE,158,4.0,5.8,76,0.00,,,0.00,WUHU216HW,2013-03-30 04:46:00,
2013-03-29 21:51:00,55.7,48.2,30.04,SSE,158,4.2,5.8,76,0.00,,,0.00,WUHU216HW,2013-03-30 04:51:00,
2013-03-29 21:57:00,55.4,48.0,30.04,SE,135,6.4,6.4,77,0.00,,,0.00,WUHU216HW,2013-03-30 04:57:00,
2013-03-29 22:02:00,55.0,47.9,30.04,SE,135,3.3,6.4,77,0.00,,,0.00,WUHU216HW,2013-03-30 05:02:00,
2013-03-29 22:07:00,54.5,47.7,30.05,SE,135,2.9,5.8,78,0.00,,,0.00,WUHU216HW,2013-03-30 05:07:00,
2013-03-29 22:12:00,54.3,47.5,30.05,SSE,158,2.9,5.8,78,0.00,,,0.00,WUHU216HW,2013-03-30 05:12:00,
2013-03-29 22:17:00,53.9,47.6,30.04,South,180,2.4,3.3,79,0.00,,,0.00,WUHU216HW,2013-03-30 05:17:00,
2013-03-29 22:22:00,53.7,47.4,30.04,South,180,0.0,2.9,79,0.00,,,0.00,WUHU216HW,2013-03-30 05:22:00,
2013-03-29 22:27:00,53.4,47.4,30.04,SE,135,2.0,2.6,80,0.00,,,0.00,WUHU216HW,2013-03-30 05:27:00,
2013-03-29 22:32:00,53.6,47.6,30.03,ESE,113,0.0,2.6,80,0.00,,,0.00,WUHU216HW,2013-03-30 05:32:00,
2013-03-29 22:37:00,53.7,47.8,30.03,ESE,113,0.0,2.0,80,0.00,,,0.00,WUHU216HW,2013-03-30 05:37:00,
2013-03-29 22:42:00,53.7,47.8,30.03,SSW,203,1.7,1.7,80,0.00,,,0.00,WUHU216HW,2013-03-30 05:42:00,
2013-03-29 22:47:00,53.9,47.6,30.05,South,180,0.0,1.7,79,0.00,,,0.00,WUHU216HW,2013-03-30 05:47:00,
2013-03-29 22:52:00,53.9,47.6,30.04,SE,135,2.4,3.8,79,0.00,,,0.00,WUHU216HW,2013-03-30 05:52:00,
2013-03-29 22:57:00,53.7,47.4,30.04,SE,135,3.1,3.8,79,0.00,,,0.00,WUHU216HW,2013-03-30 05:57:00,
2013-03-29 23:02:00,53.7,47.4,30.05,SE,135,3.8,4.2,79,0.00,,,0.00,WUHU216HW,2013-03-30 06:02:00,
2013-03-29 23:08:00,53.4,47.4,30.05,SE,135,2.6,7.3,80,0.00,,,0.00,WUHU216HW,2013-03-30 06:08:00,
2013-03-29 23:13:00,53.4,47.4,30.05,SE,135,3.8,7.3,80,0.00,,,0.00,WUHU216HW,2013-03-30 06:13:00,
2013-03-29 23:18:00,53.4,47.4,30.05,ESE,113,4.4,4.4,80,0.00,,,0.00,WUHU216HW,2013-03-30 06:18:00,
2013-03-29 23:23:00,53.2,47.3,30.04,SSE,158,0.0,6.4,80,0.00,,,0.00,WUHU216HW,2013-03-30 06:23:00,
2013-03-29 23:28:00,53.4,47.4,30.04,SE,135,0.0,6.4,80,0.00,,,0.00,WUHU216HW,2013-03-30 06:28:00,
2013-03-29 23:33:00,53.4,47.4,30.04,SE,135,0.0,3.5,80,0.00,,,0.00,WUHU216HW,2013-03-30 06:33:00,
2013-03-29 23:38:00,53.4,47.4,30.04,SE,135,1.3,3.5,80,0.00,,,0.00,WUHU216HW,2013-03-30 06:38:00,
2013-03-29 23:43:00,53.7,47.8,30.03,SSE,158,0.6,1.3,80,0.00,,,0.00,WUHU216HW,2013-03-30 06:43:00,
2013-03-29 23:48:00,53.9,47.9,30.03,ESE,113,0.0,0.6,80,0.00,,,0.00,WUHU216HW,2013-03-30 06:48:00,
2013-03-29 23:53:00,54.1,48.1,30.03,ESE,113,0.0,0.0,80,0.00,,,0.00,WUHU216HW,2013-03-30 06:53:00,
2013-03-29 23:58:00,54.3,47.9,30.03,West,270,0.0,0.0,79,0.00,,,0.00,WUHU216HW,2013-03-30 06:58:00,